Total_Precipitation_Accumulation
0.04 0.04 0.04 0.03 0.04 0.04 0.05 0.08 0.14 0.13 0.06 0.01 0.00 0.00 0.00 0.02 0.04 0.08 0.13 0.12 0.11 0.10 0.08 0.06 0.05 0.05 0.05 0.06 0.06 0.07 0.09 0.11 0.15 0.20 0.28 0.36 0.44 0.55
0.04 0.05 0.06 0.05 0.05 0.05 0.06 0.08 0.13 0.19 0.14 0.04 0.01 0.01 0.02 0.03 0.05 0.11 0.14 0.11 0.11 0.10 0.08 0.06 0.06 0.06 0.06 0.07 0.07 0.07 0.07 0.08 0.09 0.12 0.16 0.24 0.34 0.47
0.05 0.06 0.07 0.07 0.08 0.07 0.07 0.08 0.09 0.14 0.18 0.09 0.04 0.04 0.07 0.10 0.12 0.16 0.15 0.14 0.12 0.13 0.13 0.12 0.10 0.08 0.08 0.09 0.09 0.10 0.10 0.10 0.10 0.11 0.13 0.18 0.26 0.34
0.05 0.05 0.05 0.06 0.08 0.07 0.07 0.07 0.08 0.13 0.21 0.20 0.12 0.09 0.10 0.12 0.16 0.17 0.12 0.10 0.12 0.15 0.15 0.13 0.11 0.10 0.09 0.08 0.08 0.08 0.07 0.07 0.07 0.09 0.12 0.19 0.26 0.31
0.03 0.04 0.04 0.05 0.06 0.07 0.08 0.09 0.11 0.14 0.20 0.24 0.17 0.13 0.11 0.10 0.17 0.19 0.18 0.21 0.13 0.10 0.10 0.09 0.09 0.09 0.09 0.08 0.07 0.06 0.04 0.03 0.03 0.06 0.13 0.20 0.25 0.31
0.02 0.03 0.04 0.06 0.09 0.12 0.11 0.12 0.15 0.18 0.19 0.22 0.18 0.14 0.12 0.12 0.21 0.29 0.26 0.21 0.17 0.10 0.09 0.07 0.08 0.07 0.09 0.13 0.09 0.07 0.06 0.05 0.07 0.13 0.19 0.22 0.26 0.29
0.02 0.03 0.04 0.06 0.11 0.14 0.14 0.16 0.20 0.23 0.24 0.27 0.25 0.19 0.15 0.18 0.26 0.30 0.28 0.20 0.15 0.11 0.13 0.11 0.13 0.22 0.41 0.53 0.36 0.17 0.11 0.10 0.13 0.21 0.28 0.29 0.28 0.27
0.03 0.04 0.04 0.04 0.07 0.08 0.10 0.14 0.21 0.26 0.31 0.34 0.31 0.25 0.18 0.24 0.32 0.36 0.36 0.30 0.21 0.13 0.15 0.13 0.22 0.54 0.92 1.17 0.84 0.38 0.25 0.21 0.18 0.23 0.28 0.29 0.28 0.25
0.07 0.07 0.05 0.05 0.09 0.11 0.10 0.09 0.10 0.17 0.31 0.42 0.41 0.30 0.27 0.32 0.44 0.46 0.39 0.35 0.29 0.22 0.25 0.24 0.35 0.65 0.83 1.01 0.99 0.63 0.49 0.40 0.32 0.33 0.34 0.32 0.28 0.25
0.06 0.07 0.10 0.12 0.11 0.09 0.07 0.07 0.10 0.19 0.30 0.36 0.40 0.36 0.37 0.42 0.50 0.51 0.44 0.37 0.27 0.23 0.30 0.35 0.43 0.60 0.68 0.89 1.19 1.09 0.91 0.73 0.59 0.53 0.48 0.43 0.36 0.31
0.03 0.05 0.08 0.11 0.10 0.10 0.10 0.12 0.15 0.22 0.28 0.40 0.46 0.52 0.56 0.55 0.50 0.46 0.47 0.44 0.37 0.26 0.31 0.41 0.51 0.63 0.75 1.00 1.17 1.27 1.19 1.01 0.82 0.67 0.57 0.48 0.41 0.38
0.02 0.04 0.07 0.09 0.10 0.10 0.11 0.16 0.23 0.28 0.42 0.58 0.68 0.73 0.66 0.59 0.53 0.49 0.52 0.53 0.50 0.44 0.35 0.39 0.47 0.63 0.89 1.14 1.12 1.03 1.03 1.06 0.98 0.86 0.71 0.52 0.36 0.31
0.07 0.10 0.13 0.13 0.14 0.11 0.12 0.21 0.33 0.43 0.63 0.83 0.82 0.67 0.52 0.42 0.40 0.42 0.42 0.47 0.52 0.51 0.39 0.40 0.47 0.62 0.80 1.00 1.08 1.02 0.89 0.85 0.86 0.94 0.91 0.69 0.43 0.33
0.14 0.16 0.18 0.19 0.17 0.16 0.20 0.32 0.43 0.60 0.76 0.84 0.71 0.53 0.41 0.35 0.33 0.32 0.32 0.35 0.39 0.43 0.38 0.40 0.51 0.65 0.76 0.78 0.88 0.91 0.88 0.92 0.94 0.97 0.93 0.83 0.62 0.51
0.16 0.22 0.24 0.22 0.24 0.31 0.40 0.51 0.60 0.68 0.77 0.71 0.55 0.46 0.41 0.35 0.30 0.28 0.28 0.30 0.32 0.33 0.32 0.36 0.47 0.61 0.73 0.72 0.74 0.73 0.83 1.07 1.15 1.11 1.00 0.85 0.72 0.59
0.15 0.26 0.35 0.38 0.40 0.47 0.54 0.61 0.65 0.73 0.71 0.55 0.43 0.38 0.35 0.31 0.29 0.26 0.26 0.26 0.29 0.31 0.30 0.34 0.40 0.49 0.63 0.69 0.70 0.75 0.80 1.15 1.33 1.21 1.07 1.00 0.87 0.74
0.17 0.25 0.34 0.39 0.43 0.48 0.49 0.54 0.57 0.56 0.55 0.47 0.40 0.34 0.31 0.28 0.28 0.27 0.25 0.23 0.26 0.30 0.32 0.34 0.37 0.40 0.48 0.57 0.69 0.79 0.88 1.07 1.20 1.11 0.96 0.98 0.98 0.84
0.20 0.30 0.42 0.49 0.53 0.54 0.51 0.52 0.53 0.49 0.46 0.43 0.40 0.35 0.31 0.29 0.28 0.27 0.25 0.24 0.26 0.27 0.29 0.29 0.28 0.26 0.28 0.40 0.67 0.78 0.82 0.98 1.04 0.91 0.73 0.76 0.90 0.82
0.19 0.33 0.47 0.60 0.63 0.58 0.52 0.50 0.54 0.55 0.52 0.47 0.40 0.35 0.31 0.28 0.25 0.24 0.23 0.23 0.23 0.23 0.22 0.18 0.15 0.12 0.12 0.34 0.66 0.91 0.87 0.85 0.78 0.70 0.60 0.55 0.69 0.73
0.23 0.37 0.49 0.56 0.59 0.60 0.55 0.52 0.55 0.58 0.54 0.46 0.40 0.36 0.31 0.25 0.21 0.22 0.22 0.19 0.17 0.14 0.12 0.12 0.13 0.13 0.14 0.25 0.59 0.89 0.89 0.64 0.50 0.51 0.49 0.48 0.62 0.66
0.28 0.36 0.45 0.47 0.46 0.47 0.46 0.45 0.49 0.53 0.49 0.42 0.37 0.34 0.29 0.23 0.22 0.20 0.16 0.14 0.12 0.10 0.11 0.16 0.20 0.18 0.11 0.09 0.30 0.57 0.70 0.69 0.47 0.34 0.32 0.35 0.37 0.32
0.25 0.33 0.40 0.38 0.36 0.34 0.32 0.32 0.34 0.36 0.35 0.32 0.30 0.27 0.25 0.23 0.20 0.16 0.14 0.12 0.11 0.10 0.12 0.15 0.14 0.11 0.09 0.11 0.24 0.43 0.50 0.48 0.45 0.44 0.39 0.26 0.16 0.18
0.22 0.24 0.28 0.32 0.31 0.28 0.24 0.22 0.22 0.23 0.23 0.24 0.24 0.24 0.22 0.19 0.15 0.11 0.08 0.07 0.06 0.06 0.07 0.08 0.07 0.06 0.06 0.07 0.11 0.19 0.21 0.19 0.16 0.21 0.36 0.36 0.21 0.20